This is the latest recevied weather packets stored in our database for station/object KI4NG. If no packets are shown the sender has not sent any weather packets the latest 10 day(s).
| Time | Temp. | Humidity | Pressure | Rain* | Wind** | Luminosity | Snow |
|---|---|---|---|---|---|---|---|
| 1778047735 | 16.67° C | 83% | 1009.7 hPa | 0 mm | - | 0 W/m² | - |
| 1778047433 | 16.67° C | 85% | 1009.6 hPa | 0 mm | - | 0 W/m² | - |
| 1778047129 | 16.11° C | 88% | 1009.7 hPa | 0 mm | - | 0 W/m² | - |
| 1778046826 | 15.56° C | 87% | 1009.8 hPa | 0 mm | - | 0 W/m² | - |
| 1778046523 | 16.11° C | 88% | 1009.9 hPa | 0 mm | - | 0 W/m² | - |
| 1778046220 | 16.11° C | 86% | 1010.2 hPa | 0 mm | - | 0 W/m² | - |
| 1778045916 | 16.11° C | 88% | 1010.2 hPa | 0 mm | - | 0 W/m² | - |
| 1778045615 | 15.56° C | 90% | 1010.3 hPa | 0 mm | - | 0 W/m² | - |
| 1778045313 | 15.56° C | 90% | 1010.1 hPa | 0 mm | - | 0 W/m² | - |
| 1778045012 | 15° C | 92% | 1010.5 hPa | 0 mm | - | 0 W/m² | - |
| 1778044709 | 15.56° C | 92% | 1010.4 hPa | 0 mm | - | 0 W/m² | - |
| 1778044405 | 15° C | 92% | 1010.5 hPa | 0 mm | - | 0 W/m² | - |
| 1778044103 | 15° C | 92% | 1010.6 hPa | 0 mm | - | 0 W/m² | - |
| 1778043800 | 15° C | 93% | 1010.7 hPa | 0 mm | - | 0 W/m² | - |
| 1778043497 | 15° C | 93% | 1010.6 hPa | 0 mm | - | 0 W/m² | - |
| 1778043193 | 15° C | 94% | 1010.7 hPa | 0 mm | - | 0 W/m² | - |
| 1778042890 | 14.44° C | 94% | 1010.9 hPa | 0 mm | - | 0 W/m² | - |
| 1778042588 | 14.44° C | 95% | 1010.8 hPa | 0 mm | - | 0 W/m² | - |
| 1778042285 | 13.89° C | 97% | 1010.9 hPa | 0 mm | - | 0 W/m² | - |
| 1778041982 | 13.89° C | 98% | 1010.9 hPa | 0 mm | - | 0 W/m² | - |
| 1778041681 | 13.89° C | 99% | 1010.9 hPa | 0 mm | - | 0 W/m² | - |
| 1778041379 | 13.89° C | 99% | 1010.8 hPa | 0 mm | - | 0 W/m² | - |
| 1778041077 | 13.89° C | 99% | 1010.7 hPa | 0 mm | - | 0 W/m² | - |
| 1778040774 | 13.33° C | 99% | 1010.8 hPa | 0 mm | - | 0 W/m² | - |
| 1778040471 | 13.33° C | 99% | 1010.6 hPa | 0 mm | - | 0 W/m² | - |
* Rain latest hour (hover to see other rain measurements)
** Current wind speed in m/s (hover to see current wind gust speed)